FW6610 Weather Reports


time (UTC)temp
C
wind
direction
speed
KPH
gust
KPH
rain 1hr
cm
rain 24hr
cm
rain mn
cm
humidity
%
barometer
mb
20260831182030 25 221 0.0 3.2 0.00 0.00 0.00 71 1020.3
20260831181550 25 14 0.0 1.6 0.00 0.00 0.00 69 1020.1
20260831181026 25 0 0.0 1.6 0.00 0.00 0.00 71 1020.2
20260831180529 25 189 0.0 1.6 0.00 0.00 0.00 71 1020.1
20260831180052 25 0 0.0 1.6 0.00 0.00 0.00 73 1020.1
20260831175530 24 0 0.0 1.6 0.00 0.00 0.00 73 1020.0
20260831175028 25 0 0.0 1.6 0.00 0.00 0.00 72 1019.9
20260831174550 24 0 0.0 3.2 0.00 0.00 0.00 68 1020.1
20260831174029 24 162 0.0 3.2 0.00 0.00 0.00 75 1020.2
20260831173528 24 53 0.0 3.2 0.00 0.00 0.00 70 1020.4
20260831173101 24 55 0.0 3.2 0.00 0.00 0.00 69 1020.5
20260831172529 24 0 0.0 3.2 0.00 0.00 0.00 72 1020.5
20260831172027 24 10 0.0 3.2 0.00 0.00 0.00 73 1020.4
20260831171554 23 11 0.0 3.2 0.00 0.00 0.00 69 1020.4
20260831171031 24 91 0.0 1.6 0.00 0.00 0.00 71 1020.6
20260831170528 24 0 0.0 1.6 0.00 0.00 0.00 71 1020.6
20260831170045 23 0 0.0 1.6 0.00 0.00 0.00 71 1020.7
20260831165530 23 35 0.0 1.6 0.00 0.00 0.00 73 1020.8
20260831165028 23 0 0.0 4.8 0.00 0.00 0.00 72 1020.8
20260831164553 23 323 1.6 4.8 0.00 0.00 0.00 68 1020.9
20260831164028 23 0 0.0 6.4 0.00 0.00 0.00 67 1020.9
20260831163528 24 0 1.6 6.4 0.00 0.00 0.00 69 1020.9
20260831163052 24 219 0.0 0.0 0.00 0.00 0.00 70 1021.0
20260831162528 23 0 0.0 1.6 0.00 0.00 0.00 69 1021.1
20260831162029 24 0 0.0 1.6 0.00 0.00 0.00 68 1021.0
20260831161613 24 185 0.0 3.2 0.00 0.00 0.00 67 1021.1
20260831161031 23 0 0.0 3.2 0.00 0.00 0.00 70 1021.3
20260831160530 24 253 1.6 3.2 0.00 0.00 0.00 67 1021.4
20260831160059 24 319 1.6 3.2 0.00 0.00 0.00 68 1021.6
20260831155533 23 0 1.6 3.2 0.00 0.00 0.00 68 1021.4
20260831155029 23 256 0.0 3.2 0.00 0.00 0.00 71 1021.2
20260831154612 23 258 0.0 3.2 0.00 0.00 0.00 70 1021.3
20260831154027 24 204 0.0 4.8 0.00 0.00 0.00 71 1021.4
20260831153531 23 0 0.0 4.8 0.00 0.00 0.00 75 1021.2
20260831153052 23 260 0.0 4.8 0.00 0.00 0.00 75 1021.3
20260831152530 22 0 0.0 4.8 0.00 0.00 0.00 75 1021.1
20260831152030 22 233 0.0 3.2 0.00 0.00 0.00 72 1021.3
20260831151546 22 164 0.0 1.6 0.00 0.00 0.00 78 1021.1
20260831151031 22 0 0.0 1.6 0.00 0.00 0.00 78 1021.2
20260831150530 22 0 0.0 4.8 0.00 0.00 0.00 76 1021.2
20260831150054 22 359 0.0 4.8 0.00 0.00 0.00 80 1021.4
20260831145529 22 326 1.6 4.8 0.00 0.00 0.00 74 1021.2
20260831145032 22 0 0.0 1.6 0.00 0.00 0.00 78 1021.2
20260831144553 21 0 0.0 6.4 0.00 0.00 0.00 81 1021.5
20260831144029 21 0 0.0 6.4 0.00 0.00 0.00 82 1021.4
20260831143529 21 297 3.2 6.4 0.00 0.00 0.00 78 1021.4
20260831143049 21 0 0.0 4.8 0.00 0.00 0.00 79 1021.4
20260831142530 21 0 0.0 4.8 0.00 0.00 0.00 80 1021.2
20260831142028 21 336 0.0 3.2 0.00 0.00 0.00 82 1021.3
20260831141558 21 322 0.0 3.2 0.00 0.00 0.00 82 1021.3
20260831141031 20 82 0.0 4.8 0.00 0.00 0.00 82 1021.3
20260831140531 20 245 0.0 11.3 0.00 0.00 0.00 82 1021.3
20260831140051 20 212 0.0 11.3 0.00 0.00 0.00 83 1021.3
20260831135529 20 48 3.2 11.3 0.00 0.00 0.00 85 1021.4
20260831135028 20 314 1.6 6.4 0.00 0.00 0.00 85 1021.2
20260831134548 20 0 0.0 4.8 0.00 0.00 0.00 88 1021.3
20260831134028 20 0 0.0 8.0 0.00 0.00 0.00 86 1021.2
20260831133528 20 0 1.6 8.0 0.00 0.00 0.00 89 1021.2
20260831133052 19 44 0.0 3.2 0.00 0.00 0.00 89 1021.2
20260831132531 19 314 0.0 3.2 0.00 0.00 0.00 90 1021.3
20260831132031 18 0 0.0 3.2 0.00 0.00 0.00 92 1021.3
20260831131549 18 0 0.0 3.2 0.00 0.00 0.00 93 1021.1
20260831131031 18 219 0.0 1.6 0.00 0.00 0.00 95 1021.2
20260831130529 17 252 0.0 1.6 0.00 0.00 0.00 96 1021.1
20260831130047 17 0 0.0 1.6 0.00 0.00 0.00 97 1021.4
20260831125529 17 1 0.0 1.6 0.00 0.00 0.00 98 1021.3
20260831125032 17 0 0.0 1.6 0.00 0.00 0.00 98 1021.3
20260831124553 17 0 0.0 1.6 0.00 0.00 0.00 99 1021.3
20260831124030 17 0 0.0 0.0 0.00 0.00 0.00 99 1021.3
20260831123529 16 0 0.0 0.0 0.00 0.00 0.00 98 1021.3
20260831123053 16 0 0.0 0.0 0.00 0.00 0.00 98 1021.2
20260831122530 16 0 0.0 0.0 0.00 0.00 0.00 99 1021.3
20260831122031 16 0 0.0 0.0 0.00 0.00 0.00 99 1021.3
20260831121548 16 0 0.0 0.0 0.00 0.00 0.00 99 1021.4
20260831121030 16 0 0.0 0.0 0.00 0.00 0.00 99 1021.4
20260831120529 16 0 0.0 0.0 0.00 0.00 0.00 99 1021.4
20260831120104 16 0 0.0 0.0 0.00 0.00 0.00 98 1021.3
20260831115528 15 0 0.0 0.0 0.00 0.00 0.00 98 1021.3
20260831115032 15 0 0.0 0.0 0.00 0.00 0.00 98 1021.2
20260831114554 15 0 0.0 0.0 0.00 0.00 0.00 98 1021.1
20260831114031 15 0 0.0 0.0 0.00 0.00 0.00 99 1021.0
20260831113530 15 0 0.0 0.0 0.00 0.00 0.00 99 1020.9
20260831113054 15 0 0.0 0.0 0.00 0.00 0.00 99 1020.9
20260831112530 15 0 0.0 0.0 0.00 0.00 0.00 98 1020.8
20260831112030 15 0 0.0 0.0 0.00 0.00 0.00 98 1020.8
20260831111554 15 0 0.0 0.0 0.00 0.00 0.00 98 1020.7
20260831111030 14 0 0.0 0.0 0.00 0.00 0.00 98 1020.6
20260831110535 14 0 0.0 0.0 0.00 0.00 0.00 98 1020.5
20260831110045 14 0 0.0 0.0 0.00 0.00 0.00 98 1020.5
20260831105532 14 0 0.0 0.0 0.00 0.00 0.00 98 1020.4
20260831105031 14 0 0.0 0.0 0.00 0.00 0.00 98 1020.3
20260831104603 14 0 0.0 0.0 0.00 0.00 0.00 98 1020.3
20260831104031 14 0 0.0 0.0 0.00 0.00 0.00 98 1020.3
20260831103530 14 0 0.0 0.0 0.00 0.00 0.00 98 1020.3
20260831103052 14 0 0.0 0.0 0.00 0.00 0.00 98 1020.2
20260831102531 14 0 0.0 0.0 0.00 0.00 0.00 98 1020.0
20260831102031 14 0 0.0 0.0 0.00 0.00 0.00 98 1019.9
20260831101550 14 0 0.0 0.0 0.00 0.00 0.00 97 1019.8
20260831101030 14 0 0.0 0.0 0.00 0.00 0.00 97 1019.9
20260831100529 14 0 0.0 0.0 0.00 0.00 0.00 97 1020.1
20260831100050 14 0 0.0 0.0 0.00 0.00 0.00 97 1020.1
20260831095529 14 0 0.0 0.0 0.00 0.00 0.00 97 1020.0
20260831095028 14 0 0.0 0.0 0.00 0.00 0.00 97 1020.1
20260831094543 14 0 0.0 0.0 0.00 0.00 0.00 97 1020.1
20260831094029 15 0 0.0 0.0 0.00 0.00 0.00 97 1019.9
20260831093528 15 0 0.0 0.0 0.00 0.00 0.00 97 1020.1
20260831093055 15 0 0.0 0.0 0.00 0.00 0.00 97 1019.9
20260831092532 15 0 0.0 0.0 0.00 0.00 0.00 97 1020.0
20260831092025 15 0 0.0 0.0 0.00 0.00 0.00 97 1020.1
20260831091545 15 0 0.0 0.0 0.00 0.00 0.00 97 1019.9
20260831091030 15 0 0.0 0.0 0.00 0.00 0.00 97 1019.9
20260831090531 15 0 0.0 0.0 0.00 0.00 0.00 97 1020.0
20260831090057 15 0 0.0 0.0 0.00 0.00 0.00 98 1019.8
20260831085530 15 0 0.0 0.0 0.00 0.00 0.00 97 1019.7
20260831085032 15 0 0.0 0.0 0.00 0.00 0.00 97 1019.6
20260831084558 15 0 0.0 0.0 0.00 0.00 0.00 97 1019.8
20260831084026 15 0 0.0 0.0 0.00 0.00 0.00 97 1019.6
20260831083530 15 0 0.0 0.0 0.00 0.00 0.00 97 1019.7
20260831083049 15 0 0.0 0.0 0.00 0.00 0.00 97 1019.6
20260831082528 15 0 0.0 0.0 0.00 0.00 0.00 97 1019.8
20260831082029 15 0 0.0 0.0 0.00 0.00 0.00 97 1019.8
20260831081547 15 0 0.0 0.0 0.00 0.00 0.00 97 1019.8
20260831081029 15 0 0.0 0.0 0.00 0.00 0.00 97 1019.6
20260831080528 15 0 0.0 0.0 0.00 0.00 0.00 97 1019.7
20260831080046 15 0 0.0 0.0 0.00 0.00 0.00 97 1019.7
20260831075527 15 0 0.0 0.0 0.00 0.00 0.00 97 1019.5
20260831075028 15 0 0.0 0.0 0.00 0.00 0.00 97 1019.6
20260831074554 15 0 0.0 0.0 0.00 0.00 0.00 97 1019.6
20260831074028 15 0 0.0 0.0 0.00 0.00 0.00 96 1019.6
20260831073528 15 0 0.0 0.0 0.00 0.00 0.00 96 1019.6
20260831073047 15 0 0.0 1.6 0.00 0.00 0.00 97 1019.6
20260831072529 15 0 0.0 1.6 0.00 0.00 0.00 97 1019.6
20260831072029 15 0 0.0 1.6 0.00 0.00 0.00 97 1019.5
20260831071544 15 0 0.0 1.6 0.00 0.00 0.00 97 1019.4
20260831071030 15 0 0.0 0.0 0.00 0.00 0.00 96 1019.4
20260831070528 15 0 0.0 0.0 0.00 0.00 0.00 96 1019.5
20260831070137 15 0 0.0 1.6 0.00 0.00 0.00 96 1019.4
20260831065533 15 0 0.0 1.6 0.00 0.00 0.00 96 1019.5
20260831065029 15 0 0.0 0.0 0.00 0.00 0.00 96 1019.4
20260831064551 15 0 0.0 0.0 0.00 0.00 0.00 96 1019.3
20260831064029 15 0 0.0 0.0 0.00 0.00 0.00 96 1019.4
20260831063530 15 0 0.0 0.0 0.00 0.00 0.00 96 1019.4
20260831063049 15 0 0.0 0.0 0.00 0.00 0.00 95 1019.3
20260831062529 16 0 0.0 0.0 0.00 0.00 0.00 95 1019.4
20260831062031 16 0 0.0 0.0 0.00 0.00 0.00 95 1019.5
20260831061602 16 0 0.0 1.6 0.00 0.00 0.00 95 1019.5
20260831061028 16 210 0.0 1.6 0.00 0.00 0.00 95 1019.4
20260831060530 16 0 0.0 0.0 0.00 0.00 0.00 95 1019.4
20260831060107 16 0 0.0 0.0 0.00 0.00 0.00 94 1019.3
20260831055530 16 0 0.0 0.0 0.00 0.00 0.00 94 1019.3
20260831055033 16 211 0.0 0.0 0.00 0.00 0.00 94 1019.1
20260831054553 16 0 0.0 0.0 0.00 0.00 0.00 94 1019.1
20260831054032 16 0 0.0 0.0 0.00 0.00 0.00 94 1019.1
20260831053529 16 0 0.0 0.0 0.00 0.00 0.00 93 1019.1
20260831053059 16 0 0.0 0.0 0.00 0.00 0.00 93 1019.0
20260831052529 17 0 0.0 0.0 0.00 0.00 0.00 92 1018.9
20260831052030 17 0 0.0 0.0 0.00 0.00 0.00 92 1018.9
20260831051557 17 0 0.0 0.0 0.00 0.00 0.00 92 1018.9
20260831051029 17 0 0.0 0.0 0.00 0.00 0.00 91 1019.0
20260831050531 17 0 0.0 0.0 0.00 0.00 0.00 91 1018.9
20260831050112 17 0 0.0 0.0 0.00 0.00 0.00 91 1018.8
20260831045532 17 0 0.0 0.0 0.00 0.00 0.00 91 1018.9
20260831045032 17 0 0.0 0.0 0.00 0.00 0.00 90 1019.0
20260831044559 17 0 0.0 0.0 0.00 0.00 0.00 90 1018.8
20260831044030 17 0 0.0 0.0 0.00 0.00 0.00 90 1019.0
20260831043527 18 0 0.0 1.6 0.00 0.00 0.00 89 1018.9
20260831043054 18 0 0.0 1.6 0.00 0.00 0.00 89 1018.7
20260831042530 18 0 0.0 1.6 0.00 0.00 0.00 88 1018.7
20260831042031 18 0 0.0 3.2 0.00 0.00 0.00 88 1018.5
20260831041546 18 0 0.0 3.2 0.00 0.00 0.00 87 1018.7
20260831041030 18 0 0.0 1.6 0.00 0.00 0.00 86 1018.6
20260831040530 19 0 0.0 1.6 0.00 0.00 0.00 86 1018.6
20260831040045 19 0 0.0 1.6 0.00 0.00 0.00 85 1018.6
20260831035530 19 0 0.0 1.6 0.00 0.00 0.00 85 1018.6
20260831035029 19 0 0.0 6.4 0.00 0.00 0.00 84 1018.6
20260831034549 20 0 0.0 6.4 0.00 0.00 0.00 84 1018.6
20260831034029 20 0 1.6 6.4 0.00 0.00 0.00 84 1018.7
20260831033529 20 207 0.0 1.6 0.00 0.00 0.00 84 1018.6
20260831033104 20 0 0.0 1.6 0.00 0.00 0.00 82 1018.8
20260831032530 20 0 0.0 6.4 0.00 0.00 0.00 82 1018.7
20260831032029 20 0 0.0 6.4 0.00 0.00 0.00 81 1018.7
20260831031546 21 260 0.0 6.4 0.00 0.00 0.00 80 1018.7
20260831031031 21 63 1.6 4.8 0.00 0.00 0.00 79 1018.5
20260831030530 21 276 0.0 11.3 0.00 0.00 0.00 79 1018.7
20260831030046 21 204 1.6 11.3 0.00 0.00 0.00 80 1018.5
20260831025532 21 282 0.0 3.2 0.00 0.00 0.00 80 1018.6
20260831025030 21 0 0.0 6.4 0.00 0.00 0.00 80 1018.5
20260831024554 21 146 0.0 9.7 0.00 0.00 0.00 81 1018.6
20260831024033 21 34 3.2 9.7 0.00 0.00 0.00 79 1018.7
20260831023529 21 303 3.2 8.0 0.00 0.00 0.00 79 1018.5
20260831023050 21 333 1.6 8.0 0.00 0.00 0.00 79 1018.7
20260831022528 21 298 1.6 8.0 0.00 0.00 0.00 80 1018.6
20260831022031 21 350 1.6 12.9 0.00 0.00 0.00 79 1018.5
20260831021555 21 32 3.2 12.9 0.00 0.00 0.00 79 1018.3
20260831021034 21 264 1.6 11.3 0.00 0.00 0.00 79 1018.7
20260831020531 22 304 4.8 12.9 0.00 0.00 0.00 78 1018.6
20260831020109 22 274 4.8 19.3 0.00 0.00 0.00 78 1018.6
20260831015531 22 274 4.8 19.3 0.00 0.00 0.00 78 1018.7
20260831015030 22 292 4.8 19.3 0.00 0.00 0.00 78 1018.4
20260831014553 22 310 3.2 19.3 0.00 0.00 0.00 79 1018.4
20260831014030 22 325 4.8 16.1 0.00 0.00 0.00 79 1018.4
20260831013529 22 341 3.2 14.5 0.00 0.00 0.00 79 1018.2
20260831013048 22 27 3.2 9.7 0.00 0.00 0.00 79 1018.1
20260831012530 22 345 3.2 8.0 0.00 0.00 0.00 80 1018.1
20260831012028 22 43 3.2 8.0 0.00 0.00 0.00 80 1018.2
20260831011548 22 1 3.2 8.0 0.00 0.00 0.00 81 1018.2
20260831011029 21 0 0.0 3.2 0.00 0.00 0.00 83 1018.2
20260831010529 21 0 0.0 3.2 0.00 0.00 0.00 83 1018.1
20260831010056 21 0 0.0 3.2 0.00 0.00 0.00 84 1018.2
20260831005528 21 202 0.0 3.2 0.00 0.00 0.00 85 1018.0
20260831005030 21 0 0.0 4.8 0.00 0.00 0.00 87 1018.0
20260831004557 21 0 0.0 4.8 0.00 0.00 0.00 88 1018.0
20260831004032 21 0 0.0 3.2 0.00 0.00 0.00 89 1018.0
20260831003530 21 0 0.0 0.0 0.00 0.00 0.00 89 1017.9
20260831003048 21 0 0.0 0.0 0.00 0.00 0.00 88 1017.7
20260831002529 21 0 0.0 0.0 0.00 0.00 0.00 88 1017.7
20260831002027 21 0 0.0 0.0 0.00 0.00 0.00 88 1017.6
20260831001546 21 0 0.0 0.0 0.00 0.00 0.00 88 1017.5
20260831001032 21 0 0.0 0.0 0.00 0.00 0.00 89 1017.7
20260831000531 21 0 0.0 0.0 0.00 0.00 0.00 89 1017.5
20260831000047 21 0 0.0 0.0 0.00 0.00 0.00 88 1017.4
20260830235527 21 0 0.0 0.0 0.00 0.00 0.00 87 1017.2
20260830235031 21 0 0.0 0.0 0.00 0.00 0.00 87 1017.2
20260830234551 21 0 0.0 0.0 0.00 0.00 0.00 87 1017.2
20260830234030 21 0 0.0 0.0 0.00 0.00 0.00 87 1017.3
20260830233530 21 0 0.0 0.0 0.00 0.00 0.00 87 1017.3
20260830233047 21 0 0.0 0.0 0.00 0.00 0.00 87 1017.3
20260830232530 21 0 0.0 0.0 0.00 0.00 0.00 86 1017.3
20260830232030 22 0 0.0 0.0 0.00 0.00 0.00 86 1017.3
20260830231546 22 0 0.0 0.0 0.00 0.00 0.00 86 1017.4
20260830231029 22 0 0.0 0.0 0.00 0.00 0.00 86 1017.3
20260830230532 22 0 0.0 0.0 0.00 0.00 0.00 85 1017.3
20260830230053 22 0 0.0 0.0 0.00 0.00 0.00 84 1017.2
20260830225530 22 0 0.0 0.0 0.00 0.00 0.00 83 1017.2
20260830225031 22 0 0.0 0.0 0.00 0.00 0.00 83 1017.5
20260830224549 22 0 0.0 0.0 0.00 0.00 0.00 82 1017.5
20260830224027 22 0 0.0 0.0 0.00 0.00 0.00 82 1017.4
20260830223530 23 0 0.0 0.0 0.00 0.00 0.00 81 1017.4
20260830223045 23 0 0.0 0.0 0.00 0.00 0.00 81 1017.3
20260830222530 23 0 0.0 0.0 0.00 0.00 0.00 81 1017.3
20260830222029 23 0 0.0 0.0 0.00 0.00 0.00 80 1017.3
20260830221553 23 0 0.0 0.0 0.00 0.00 0.00 80 1017.2
20260830221027 23 0 0.0 0.0 0.00 0.00 0.00 79 1017.3
20260830220531 23 0 0.0 0.0 0.00 0.00 0.00 79 1017.2
20260830220101 24 0 0.0 0.0 0.00 0.00 0.00 78 1017.2
20260830215530 24 0 0.0 1.6 0.00 0.00 0.00 78 1017.4
20260830215030 24 0 0.0 8.0 0.00 0.00 0.00 78 1017.4
20260830214548 25 95 0.0 8.0 0.00 0.00 0.00 77 1017.4
20260830214030 25 77 1.6 8.0 0.00 0.00 0.00 75 1017.4
20260830213530 25 0 0.0 1.6 0.00 0.00 0.00 76 1017.5
20260830213046 25 210 0.0 1.6 0.00 0.00 0.00 78 1017.5
20260830212530 25 0 0.0 1.6 0.00 0.00 0.00 76 1017.5
20260830212030 25 0 0.0 1.6 0.00 0.00 0.00 78 1017.4
20260830211542 25 0 0.0 1.6 0.00 0.00 0.00 78 1017.5
20260830211031 25 0 0.0 1.6 0.00 0.00 0.00 77 1017.6
20260830210530 25 0 0.0 3.2 0.00 0.00 0.00 77 1017.5
20260830210054 25 0 0.0 4.8 0.00 0.00 0.00 79 1017.7
20260830205531 25 0 0.0 4.8 0.00 0.00 0.00 77 1017.6
20260830205029 25 0 0.0 1.6 0.00 0.00 0.00 76 1017.7
20260830204553 25 0 0.0 1.6 0.00 0.00 0.00 77 1017.6
20260830204029 25 0 0.0 3.2 0.00 0.00 0.00 76 1017.7
20260830203531 25 0 0.0 3.2 0.00 0.00 0.00 75 1017.7
20260830203049 25 0 0.0 3.2 0.00 0.00 0.00 74 1017.7
20260830202530 25 355 0.0 1.6 0.00 0.00 0.00 75 1017.6
20260830202030 25 0 0.0 1.6 0.00 0.00 0.00 77 1017.7
20260830201546 24 0 0.0 1.6 0.00 0.00 0.00 76 1017.6
20260830201032 25 0 0.0 0.0 0.00 0.00 0.00 76 1017.7
20260830200530 25 0 0.0 1.6 0.00 0.00 0.00 74 1017.8
20260830200045 25 0 0.0 1.6 0.00 0.00 0.00 76 1017.8
20260830195529 25 0 0.0 1.6 0.00 0.00 0.00 74 1017.9
20260830195031 25 110 0.0 1.6 0.00 0.00 0.00 76 1017.9
20260830194553 24 110 0.0 3.2 0.00 0.00 0.00 74 1017.9
20260830194030 24 134 0.0 3.2 0.00 0.00 0.00 75 1018.0
20260830193530 24 0 0.0 1.6 0.00 0.00 0.00 75 1017.9
20260830193048 23 160 0.0 1.6 0.00 0.00 0.00 75 1018.0
20260830192529 23 0 0.0 1.6 0.00 0.00 0.00 75 1018.0
20260830192032 23 0 0.0 0.0 0.00 0.00 0.00 75 1018.1
20260830191555 23 0 0.0 0.0 0.00 0.00 0.00 75 1018.1
20260830191029 23 0 0.0 0.0 0.00 0.00 0.00 76 1018.2
20260830190527 23 0 0.0 0.0 0.00 0.00 0.00 76 1018.3
20260830190103 23 0 0.0 0.0 0.00 0.00 0.00 77 1018.3
20260830185527 23 0 0.0 0.0 0.00 0.00 0.00 74 1018.4
20260830185029 24 0 0.0 0.0 0.00 0.00 0.00 73 1018.5
20260830184549 24 0 0.0 1.6 0.00 0.00 0.00 71 1018.6
20260830184029 24 0 0.0 1.6 0.00 0.00 0.00 72 1018.6
20260830183529 24 0 0.0 1.6 0.00 0.00 0.00 70 1018.6
20260830183046 25 133 0.0 3.2 0.00 0.00 0.00 72 1018.7
20260830182531 25 0 0.0 3.2 0.00 0.00 0.00 71 1018.9